{"data":{"norad_id":58716,"intl_designator":"2024-002M","name":"STARLINK-31098","alt_names":[],"object_type":"PAYLOAD","status":"ACTIVE","operator":null,"country":"US","launch_date":"2024-01-03","launch_site_code":"AFWTR","launch_vehicle":null,"mission":null,"orbit_class":"UNKNOWN","rcs_meters":null,"size_class":null,"mass_kg":null,"dimensions":null,"purposes":["comms"],"wikipedia_slug":null,"has_3d_model":false,"image_url":null,"decayed_at":null,"tle_current":{"epoch":"2026-05-24T23:05:13.833888Z","epoch_age_seconds":75017,"freshness":"FRESH","line1":"1 58716U 24002M   26144.96196567  .00000385  00000+0  25135-4 0  9996","line2":"2 58716  53.1616 235.6073 0001244  96.3202 263.7941 15.30192513133694","mean_motion":15.30192513,"eccentricity":0.0001244,"inclination_deg":53.1616,"raan_deg":235.6073,"arg_perigee_deg":96.3202,"mean_anomaly_deg":263.7941,"bstar":2.5135e-5,"rev_number":13369,"period_min":94.105806149634,"perigee_km":474.38486456454,"apogee_km":476.08998412132,"semimajor_km":6853.3744243429,"source":"CELESTRAK","updated_at":"2026-05-25T13:38:18.717007Z"}}}